AEZ2602 LIRF-LICJ

Flight info

Callsign AEZ2602
Flight time 0h 47m
Altitude 33000
Route ROTUN DCT GIANO
Aircraft B738/M-SDE2E3FGHIRWXY/LB1

Departure

Time 2026-05-05 07:07
Airport Rome–Fiumicino Leonardo da Vinci International Airport (LIRF)

Arrival

Time 2026-05-05 07:55
Airport Falcone–Borsellino Airport (LICJ)
Time Latitude Longitude Altitude Speed Heading
2026-05-05 06:49 41.79593 12.25770 14 ft 0 kts 115°
2026-05-05 06:58 41.79600 12.25747 13 ft 4 kts 107°
2026-05-05 06:58 41.79604 12.25713 13 ft 4 kts 75°
2026-05-05 06:58 41.79593 12.25690 14 ft 1 kts 25°
2026-05-05 07:00 41.79643 12.25721 13 ft 10 kts 25°
2026-05-05 07:00 41.79663 12.25734 14 ft 0 kts 25°
2026-05-05 07:02 41.79685 12.25749 13 ft 11 kts 26°
2026-05-05 07:02 41.79784 12.25809 13 ft 20 kts 24°
2026-05-05 07:02 41.79857 12.25804 13 ft 9 kts 303°
2026-05-05 07:02 41.79909 12.25756 13 ft 11 kts 34°
2026-05-05 07:03 41.79979 12.25867 13 ft 11 kts 39°
2026-05-05 07:03 41.80062 12.25924 13 ft 17 kts 24°
2026-05-05 07:03 41.80190 12.26011 13 ft 24 kts 32°
2026-05-05 07:03 41.80351 12.26116 15 ft 28 kts 24°
2026-05-05 07:04 41.80515 12.26173 15 ft 19 kts
2026-05-05 07:04 41.80634 12.26205 17 ft 9 kts 340°
2026-05-05 07:04 41.80647 12.26197 15 ft 0 kts 337°
2026-05-05 07:05 41.80685 12.26176 15 ft 14 kts 340°
2026-05-05 07:05 41.80726 12.26089 18 ft 11 kts 244°
2026-05-05 07:05 41.80722 12.26078 18 ft 0 kts 243°
2026-05-05 07:06 41.80714 12.26057 19 ft 9 kts 245°
2026-05-05 07:07 41.80627 12.25728 16 ft 71 kts 251°
2026-05-05 07:07 41.80380 12.24827 14 ft 132 kts 249°
2026-05-05 07:07 41.79987 12.23480 114 ft 169 kts 246°
2026-05-05 07:07 41.79596 12.21974 735 ft 169 kts 246°
2026-05-05 07:08 41.79016 12.20623 1334 ft 166 kts 216°
2026-05-05 07:08 41.78173 12.19712 2095 ft 159 kts 213°
2026-05-05 07:08 41.77242 12.18681 2545 ft 181 kts 216°
2026-05-05 07:08 41.76256 12.17588 3274 ft 186 kts 215°
2026-05-05 07:09 41.75081 12.16871 3885 ft 193 kts 192°
2026-05-05 07:09 41.73637 12.16775 4168 ft 220 kts 181°
2026-05-05 07:09 41.72015 12.16849 4519 ft 246 kts 181°
2026-05-05 07:09 41.70278 12.16950 5318 ft 252 kts 181°
2026-05-05 07:10 41.68507 12.17049 5794 ft 255 kts 181°
2026-05-05 07:10 41.66713 12.17117 5968 ft 263 kts 185°
2026-05-05 07:10 41.64881 12.17270 6465 ft 265 kts 182°
2026-05-05 07:10 41.63018 12.17337 7340 ft 269 kts 182°
2026-05-05 07:11 41.61136 12.17430 8311 ft 275 kts 182°
2026-05-05 07:11 41.59233 12.17530 9306 ft 279 kts 182°
2026-05-05 07:11 41.57256 12.17760 10382 ft 287 kts 176°
2026-05-05 07:11 41.55251 12.17796 10912 ft 303 kts 196°
2026-05-05 07:12 41.53097 12.17103 11130 ft 335 kts 197°
2026-05-05 07:12 41.50707 12.16558 11562 ft 356 kts 194°
2026-05-05 07:12 41.48272 12.15907 12273 ft 358 kts 197°
2026-05-05 07:12 41.45835 12.15154 12988 ft 362 kts 196°
2026-05-05 07:13 41.43339 12.14531 13703 ft 367 kts 193°
2026-05-05 07:13 41.40805 12.13978 14364 ft 370 kts 193°
2026-05-05 07:13 41.38255 12.13400 14992 ft 374 kts 193°
2026-05-05 07:13 41.35679 12.12788 15633 ft 377 kts 194°
2026-05-05 07:14 41.33073 12.12228 16220 ft 384 kts 188°
2026-05-05 07:14 41.30375 12.12594 16791 ft 398 kts 168°
2026-05-05 07:14 41.27725 12.13721 17446 ft 401 kts 166°
2026-05-05 07:14 41.25069 12.14916 18029 ft 406 kts 165°
2026-05-05 07:15 41.22375 12.16116 18564 ft 410 kts 166°
2026-05-05 07:15 41.19668 12.17291 19082 ft 413 kts 166°
2026-05-05 07:15 41.16925 12.18462 19615 ft 415 kts 167°
2026-05-05 07:15 41.14164 12.19634 20137 ft 418 kts 167°
2026-05-05 07:16 41.11380 12.20812 20623 ft 422 kts 167°
2026-05-05 07:16 41.08575 12.21999 21113 ft 425 kts 167°
2026-05-05 07:16 41.05751 12.23197 21639 ft 427 kts 167°
2026-05-05 07:16 41.02922 12.24398 22151 ft 429 kts 167°
2026-05-05 07:17 41.00074 12.25606 22644 ft 431 kts 167°
2026-05-05 07:17 40.97211 12.26821 23115 ft 433 kts 167°
2026-05-05 07:17 40.94333 12.28042 23599 ft 435 kts 167°
2026-05-05 07:17 40.91439 12.29265 23987 ft 438 kts 167°
2026-05-05 07:18 40.88523 12.30469 24284 ft 440 kts 171°
2026-05-05 07:18 40.85511 12.31091 24545 ft 437 kts 181°
2026-05-05 07:18 40.82479 12.31304 24946 ft 436 kts 183°
2026-05-05 07:18 40.79443 12.31445 25354 ft 437 kts 184°
2026-05-05 07:19 40.76399 12.31579 25732 ft 439 kts 184°
2026-05-05 07:19 40.73338 12.31732 26069 ft 441 kts 184°
2026-05-05 07:19 40.70265 12.31909 26389 ft 444 kts 183°
2026-05-05 07:19 40.67211 12.32105 26673 ft 447 kts 183°
2026-05-05 07:20 40.64093 12.32319 26963 ft 450 kts 183°
2026-05-05 07:20 40.60958 12.32542 27073 ft 452 kts 183°
2026-05-05 07:20 40.57815 12.32770 27089 ft 451 kts 183°
2026-05-05 07:20 40.54692 12.33000 27078 ft 447 kts 183°
2026-05-05 07:21 40.51594 12.33229 27080 ft 445 kts 183°
2026-05-05 07:21 40.48455 12.33456 27090 ft 446 kts 183°
2026-05-05 07:21 40.45395 12.33676 27083 ft 447 kts 183°
2026-05-05 07:21 40.42243 12.33901 27095 ft 448 kts 183°
2026-05-05 07:22 40.39121 12.34124 27098 ft 449 kts 183°
2026-05-05 07:22 40.35995 12.34347 27095 ft 450 kts 182°
2026-05-05 07:22 40.32867 12.34570 27093 ft 451 kts 183°
2026-05-05 07:22 40.29735 12.34793 27093 ft 451 kts 182°
2026-05-05 07:23 40.26599 12.35017 27097 ft 451 kts 182°
2026-05-05 07:23 40.23504 12.35238 27080 ft 451 kts 182°
2026-05-05 07:23 40.20368 12.35462 27089 ft 451 kts 182°
2026-05-05 07:23 40.17234 12.35685 27092 ft 451 kts 182°
2026-05-05 07:24 40.14104 12.35908 27091 ft 450 kts 182°
2026-05-05 07:24 40.10976 12.36131 27092 ft 450 kts 182°
2026-05-05 07:24 40.07851 12.36353 27093 ft 450 kts 182°
2026-05-05 07:24 40.04727 12.36574 27093 ft 449 kts 182°
2026-05-05 07:25 40.01606 12.36795 27093 ft 449 kts 182°
2026-05-05 07:25 39.98489 12.37016 27093 ft 449 kts 182°
2026-05-05 07:25 39.95375 12.37236 27091 ft 449 kts 182°
2026-05-05 07:25 39.92253 12.37457 27092 ft 448 kts 183°
2026-05-05 07:26 39.89141 12.37676 27097 ft 448 kts 183°
2026-05-05 07:26 39.86030 12.37895 27095 ft 448 kts 183°
2026-05-05 07:26 39.82918 12.38115 27094 ft 448 kts 183°
2026-05-05 07:26 39.79806 12.38334 27083 ft 448 kts 183°
2026-05-05 07:27 39.76699 12.38552 27092 ft 447 kts 183°
2026-05-05 07:27 39.74594 12.38700 27096 ft 447 kts 183°
2026-05-05 07:27 39.71492 12.38918 27104 ft 447 kts 183°
2026-05-05 07:27 39.67372 12.39207 27104 ft 447 kts 183°
2026-05-05 07:28 39.65273 12.39354 27100 ft 447 kts 183°
2026-05-05 07:28 39.62167 12.39571 27107 ft 447 kts 183°
2026-05-05 07:28 39.58045 12.39859 27095 ft 448 kts 182°
2026-05-05 07:28 39.55949 12.40006 27099 ft 447 kts 182°
2026-05-05 07:29 39.52840 12.40223 27104 ft 447 kts 182°
2026-05-05 07:29 39.49732 12.40440 27107 ft 447 kts 182°
2026-05-05 07:29 39.46619 12.40657 27106 ft 447 kts 182°
2026-05-05 07:29 39.43512 12.40873 27102 ft 449 kts 183°
2026-05-05 07:30 39.40377 12.41089 27107 ft 452 kts 182°
2026-05-05 07:30 39.34141 12.41526 26143 ft 444 kts 182°
2026-05-05 07:30 39.31122 12.41740 25623 ft 437 kts 182°
2026-05-05 07:31 39.28097 12.41952 25060 ft 432 kts 182°
2026-05-05 07:31 39.25109 12.42160 24514 ft 428 kts 181°
2026-05-05 07:31 39.22153 12.42365 23954 ft 424 kts 181°
2026-05-05 07:31 39.19219 12.42567 23331 ft 420 kts 181°
2026-05-05 07:32 39.16313 12.42767 22724 ft 416 kts 181°
2026-05-05 07:32 39.13439 12.42966 22141 ft 411 kts 181°
2026-05-05 07:32 39.10601 12.43162 21608 ft 406 kts 181°
2026-05-05 07:32 39.07791 12.43356 21067 ft 402 kts 180°
2026-05-05 07:33 39.05007 12.43548 20531 ft 398 kts 180°
2026-05-05 07:33 39.02254 12.43738 20009 ft 395 kts 180°
2026-05-05 07:33 38.99520 12.43927 19499 ft 392 kts 180°
2026-05-05 07:33 38.96811 12.44114 18976 ft 389 kts 180°
2026-05-05 07:34 38.94110 12.44300 18456 ft 388 kts 180°
2026-05-05 07:34 38.91420 12.44483 17863 ft 386 kts 180°
2026-05-05 07:34 38.88765 12.44879 17332 ft 385 kts 169°
2026-05-05 07:34 38.86204 12.45766 17101 ft 380 kts 163°
2026-05-05 07:35 38.83809 12.47324 16827 ft 394 kts 150°
2026-05-05 07:35 38.81519 12.49307 16598 ft 399 kts 147°
2026-05-05 07:35 38.79260 12.51356 16334 ft 396 kts 146°
2026-05-05 07:35 38.77030 12.53394 16086 ft 392 kts 147°
2026-05-05 07:36 38.74807 12.55406 15842 ft 391 kts 147°
2026-05-05 07:36 38.72584 12.57398 15599 ft 389 kts 148°
2026-05-05 07:36 38.70360 12.59371 15350 ft 388 kts 147°
2026-05-05 07:36 38.68141 12.61331 15111 ft 387 kts 147°
2026-05-05 07:37 38.65925 12.63280 14862 ft 386 kts 148°
2026-05-05 07:37 38.63719 12.65219 14624 ft 384 kts 148°
2026-05-05 07:37 38.61519 12.67151 14381 ft 383 kts 148°
2026-05-05 07:37 38.59328 12.69075 14152 ft 381 kts 148°
2026-05-05 07:38 38.57146 12.70990 13920 ft 380 kts 148°
2026-05-05 07:38 38.54971 12.72898 13659 ft 379 kts 148°
2026-05-05 07:38 38.52805 12.74794 13398 ft 377 kts 148°
2026-05-05 07:38 38.50658 12.76672 13411 ft 372 kts 148°
2026-05-05 07:39 38.48639 12.78757 13417 ft 378 kts 131°
2026-05-05 07:39 38.47325 12.81674 13449 ft 383 kts 109°
2026-05-05 07:39 38.46918 12.85012 13443 ft 382 kts 88°
2026-05-05 07:39 38.47383 12.88286 13435 ft 381 kts 69°
2026-05-05 07:40 38.48570 12.91302 13431 ft 380 kts 60°
2026-05-05 07:40 38.49778 12.94317 13139 ft 381 kts 64°
2026-05-05 07:40 38.50812 12.97423 12651 ft 378 kts 69°
2026-05-05 07:40 38.51634 13.00592 12149 ft 375 kts 74°
2026-05-05 07:41 38.52255 13.03811 11654 ft 372 kts 78°
2026-05-05 07:41 38.52723 13.07044 11168 ft 369 kts 81°
2026-05-05 07:41 38.53061 13.10237 11011 ft 356 kts 84°
2026-05-05 07:41 38.53283 13.13338 10827 ft 345 kts 87°
2026-05-05 07:42 38.53390 13.16359 10667 ft 335 kts 89°
2026-05-05 07:42 38.53389 13.19283 10517 ft 325 kts 92°
2026-05-05 07:42 38.53305 13.22122 10392 ft 315 kts 95°
2026-05-05 07:42 38.53101 13.24868 10247 ft 306 kts 98°
2026-05-05 07:43 38.52787 13.27516 10124 ft 298 kts 101°
2026-05-05 07:43 38.52403 13.30103 9835 ft 296 kts 103°
2026-05-05 07:43 38.51955 13.32663 9535 ft 295 kts 105°
2026-05-05 07:43 38.51438 13.35187 9239 ft 293 kts 107°
2026-05-05 07:44 38.50844 13.37672 8937 ft 291 kts 110°
2026-05-05 07:44 38.50177 13.40092 8650 ft 287 kts 112°
2026-05-05 07:44 38.49437 13.42453 8366 ft 285 kts 115°
2026-05-05 07:44 38.48631 13.44750 8087 ft 283 kts 117°
2026-05-05 07:45 38.47765 13.46981 7804 ft 277 kts 119°
2026-05-05 07:45 38.46860 13.49114 7533 ft 270 kts 121°
2026-05-05 07:45 38.45903 13.51141 7253 ft 265 kts 129°
2026-05-05 07:45 38.44520 13.52617 6967 ft 257 kts 156°
2026-05-05 07:46 38.42830 13.53198 6720 ft 250 kts 179°
2026-05-05 07:46 38.41133 13.52932 6453 ft 244 kts 198°
2026-05-05 07:46 38.39627 13.52015 6163 ft 240 kts 215°
2026-05-05 07:46 38.38285 13.50775 5865 ft 235 kts 218°
2026-05-05 07:47 38.37013 13.49530 5571 ft 226 kts 219°
2026-05-05 07:47 38.35788 13.48330 5401 ft 218 kts 218°
2026-05-05 07:47 38.34596 13.47171 5305 ft 214 kts 218°
2026-05-05 07:47 38.33395 13.46011 5200 ft 219 kts 218°
2026-05-05 07:48 38.32168 13.44833 5117 ft 223 kts 218°
2026-05-05 07:48 38.30929 13.43645 5018 ft 223 kts 218°
2026-05-05 07:48 38.29685 13.42455 4814 ft 226 kts 218°
2026-05-05 07:48 38.28455 13.41229 4564 ft 221 kts 226°
2026-05-05 07:49 38.27724 13.39598 4347 ft 208 kts 250°
2026-05-05 07:49 38.27201 13.37922 4135 ft 200 kts 248°
2026-05-05 07:49 38.26672 13.36313 3894 ft 194 kts 248°
2026-05-05 07:49 38.26166 13.34780 3680 ft 187 kts 248°
2026-05-05 07:50 38.25663 13.33253 3477 ft 183 kts 248°
2026-05-05 07:50 38.25171 13.31767 3299 ft 182 kts 248°
2026-05-05 07:50 38.24686 13.30306 3112 ft 182 kts 248°
2026-05-05 07:50 38.24191 13.28815 2873 ft 183 kts 248°
2026-05-05 07:51 38.23708 13.27317 2651 ft 182 kts 248°
2026-05-05 07:51 38.23220 13.25845 2408 ft 179 kts 248°
2026-05-05 07:51 38.22753 13.24461 2191 ft 178 kts 247°
2026-05-05 07:51 38.22268 13.23027 1955 ft 175 kts 247°
2026-05-05 07:52 38.21798 13.21629 1717 ft 167 kts 248°
2026-05-05 07:52 38.21359 13.20325 1540 ft 152 kts 248°
2026-05-05 07:52 38.20952 13.19115 1310 ft 147 kts 248°
2026-05-05 07:52 38.20555 13.17938 1113 ft 146 kts 249°
2026-05-05 07:53 38.20153 13.16739 933 ft 150 kts 249°
2026-05-05 07:53 38.19745 13.15520 748 ft 150 kts 248°
2026-05-05 07:53 38.19320 13.14322 533 ft 149 kts 248°
2026-05-05 07:53 38.18924 13.13108 291 ft 149 kts 249°
2026-05-05 07:54 38.18519 13.11883 70 ft 150 kts 245°
2026-05-05 07:54 38.18134 13.10749 52 ft 125 kts 248°
2026-05-05 07:54 38.17893 13.10031 51 ft 66 kts 247°
2026-05-05 07:54 38.17722 13.09517 50 ft 60 kts 247°
2026-05-05 07:55 38.17617 13.09146 50 ft 19 kts 302°
2026-05-05 07:55 38.17745 13.09186 49 ft 26 kts 29°
2026-05-05 07:55 38.17891 13.09386 52 ft 37 kts 64°
2026-05-05 07:55 38.18004 13.09730 52 ft 46 kts 67°
2026-05-05 07:56 38.18086 13.09860 52 ft 11 kts
2026-05-05 07:56 38.18126 13.09879 50 ft 6 kts 42°
2026-05-05 07:56 38.18169 13.09990 52 ft 27 kts 68°
2026-05-05 07:56 38.18262 13.10269 52 ft 34 kts 66°
2026-05-05 07:57 38.18357 13.10483 52 ft 23 kts 25°
2026-05-05 07:57 38.18452 13.10562 52 ft 9 kts 63°
2026-05-05 07:57 38.18507 13.10573 49 ft 9 kts 340°
2026-05-05 07:57 38.18530 13.10560 52 ft 0 kts 336°
2026-05-05 07:58 38.18531 13.10560 52 ft 0 kts 336°